TimeEDT,TemperatureF,Dew PointF,Humidity,Sea Level PressureIn,VisibilityMPH,Wind Direction,Wind SpeedMPH,Gust SpeedMPH,PrecipitationIn,Events,Conditions,WindDirDegrees,DateUTC
12:53 AM,70.0,69.1,97,29.98,10.0,Calm,Calm,-,N/A,,Clear,0,2013-05-01 04:53:00
1:53 AM,70.0,70.0,100,29.96,7.0,Calm,Calm,-,N/A,,Clear,0,2013-05-01 05:53:00
1:57 AM,69.8,69.8,100,29.96,1.8,East,3.5,-,N/A,,Clear,100,2013-05-01 05:57:00
2:06 AM,69.8,69.8,100,29.96,4.0,Calm,Calm,-,N/A,,Clear,0,2013-05-01 06:06:00
2:31 AM,69.8,69.8,100,29.95,2.0,East,3.5,-,N/A,,Partly Cloudy,90,2013-05-01 06:31:00
2:40 AM,69.8,69.8,100,29.94,10.0,East,3.5,-,N/A,,Scattered Clouds,80,2013-05-01 06:40:00
2:53 AM,70.0,70.0,100,29.94,10.0,Calm,Calm,-,N/A,,Mostly Cloudy,0,2013-05-01 06:53:00
3:02 AM,69.8,69.8,100,29.94,10.0,Calm,Calm,-,N/A,,Scattered Clouds,0,2013-05-01 07:02:00
3:53 AM,70.0,70.0,100,29.93,10.0,Calm,Calm,-,0.01,,Clear,0,2013-05-01 07:53:00
4:53 AM,71.1,70.0,96,29.93,10.0,ENE,3.5,-,N/A,,Clear,70,2013-05-01 08:53:00
5:53 AM,71.1,70.0,96,29.94,10.0,Calm,Calm,-,N/A,,Partly Cloudy,0,2013-05-01 09:53:00
6:53 AM,69.8,69.8,100,29.95,4.0,Calm,Calm,-,N/A,,Scattered Clouds,0,2013-05-01 10:53:00
7:53 AM,73.9,72.0,93,29.97,10.0,Calm,Calm,-,N/A,,Clear,0,2013-05-01 11:53:00
8:53 AM,79.0,73.0,82,29.97,10.0,ESE,9.2,-,N/A,,Partly Cloudy,120,2013-05-01 12:53:00
9:53 AM,81.0,72.0,74,30.00,10.0,ESE,8.1,-,N/A,,Partly Cloudy,110,2013-05-01 13:53:00
10:46 AM,82.4,73.4,74,30.00,10.0,ESE,11.5,-,N/A,,Mostly Cloudy,120,2013-05-01 14:46:00
10:53 AM,82.0,72.0,71,30.00,10.0,ESE,11.5,-,N/A,,Scattered Clouds,120,2013-05-01 14:53:00
11:01 AM,82.4,71.6,70,30.01,10.0,ESE,10.4,-,N/A,,Mostly Cloudy,120,2013-05-01 15:01:00
11:17 AM,82.4,71.6,70,30.00,10.0,ESE,11.5,16.1,N/A,,Scattered Clouds,110,2013-05-01 15:17:00
11:53 AM,84.0,72.0,67,29.99,10.0,SE,8.1,-,N/A,,Mostly Cloudy,130,2013-05-01 15:53:00
12:53 PM,82.9,71.1,67,29.98,10.0,SE,9.2,-,N/A,,Mostly Cloudy,130,2013-05-01 16:53:00
1:53 PM,81.0,70.0,69,29.96,10.0,SE,10.4,-,0.00,Rain,Light Rain,140,2013-05-01 17:53:00
2:53 PM,80.1,71.1,74,29.96,10.0,SSE,6.9,16.1,0.00,Rain,Light Rain,160,2013-05-01 18:53:00
3:33 PM,77.0,73.4,89,29.95,1.8,Variable,4.6,-,0.14,Rain,Heavy Rain,0,2013-05-01 19:33:00
3:36 PM,75.2,73.4,94,29.95,0.8,WNW,8.1,-,0.31,Rain,Heavy Rain,290,2013-05-01 19:36:00
3:49 PM,71.6,66.2,83,29.96,2.5,NNW,10.4,-,0.52,Rain,Light Rain,340,2013-05-01 19:49:00
3:53 PM,71.1,66.9,87,29.96,9.0,North,9.2,-,0.52,Rain,Light Rain,350,2013-05-01 19:53:00
4:19 PM,71.6,69.8,94,29.94,10.0,NNE,10.4,-,0.02,Rain,Light Rain,20,2013-05-01 20:19:00
4:53 PM,75.0,71.1,87,29.93,10.0,NNE,10.4,-,0.02,,Partly Cloudy,30,2013-05-01 20:53:00
5:53 PM,75.0,68.0,79,29.94,10.0,NNE,6.9,-,N/A,,Clear,30,2013-05-01 21:53:00
6:53 PM,75.9,70.0,82,29.95,10.0,NNE,6.9,-,N/A,,Partly Cloudy,20,2013-05-01 22:53:00
7:53 PM,75.0,70.0,84,29.95,10.0,NNE,6.9,-,N/A,,Overcast,30,2013-05-01 23:53:00
8:44 PM,73.4,68.0,83,29.97,10.0,ENE,5.8,-,N/A,,Scattered Clouds,60,2013-05-02 00:44:00
8:53 PM,73.9,68.0,82,29.98,10.0,ENE,6.9,-,N/A,,Mostly Cloudy,70,2013-05-02 00:53:00
9:53 PM,73.0,69.1,87,29.96,10.0,East,3.5,-,N/A,,Partly Cloudy,80,2013-05-02 01:53:00
10:53 PM,73.0,70.0,90,29.98,10.0,Calm,Calm,-,N/A,,Overcast,0,2013-05-02 02:53:00
11:53 PM,73.9,70.0,87,29.97,10.0,NE,4.6,-,N/A,,Mostly Cloudy,50,2013-05-02 03:53:00